Retour au catalogue

COSMOS 2491 DEB

LostPO
NORAD 45032·DEBRIS·🇷🇺 Russia

Lancé Dec 25, 2013 depuis Plesetsk Cosmodrome

Loading…

Prochains Passages (prochaines 24 heures)

TLE

PériméSource: Space-Track

Époque: Jan 27, 2020, 17:20 UTC

1 45032U 13076V   20027.72226159 -.00000632  00000-0 -37238-2 0  9994
2 45032  82.4888 182.5390 0097326  38.3639 322.4319 12.58302260  2499

Suivez COSMOS 2491 DEB en temps réel avec AllMySat

Download on the App Store